Location: Newark
(51.7378°N, 19.8125°E)
Time: 12:31:10
(UTC+00:00)

Envisat - Pass Details

Date: 11 December 2019
Orbit: 764 x 766 km, 98.1° (Epoch: 18 January)

Event Time Altitude Azimuth Distance (km) Brightness Sun altitude
Rises 04:01:08 0° 29° (NNE) 3,246 6.5 -22.8°
Reaches altitude 10° 04:04:43 10° 55° (NE) 2,312 6.1 -22.2°
Maximum altitude 04:07:15 14° 85° (E) 2,058 6.2 -21.8°
Drops below altitude 10° 04:09:46 10° 115° (ESE) 2,303 6.5 -21.5°
Sets 04:13:18 0° 141° (SE) 3,222 7.0 -20.9°
